Time,TemperatureF,DewpointF,PressureIn,WindDirection,WindDirectionDegrees,WindSpeedMPH,WindSpeedGustMPH,Humidity,HourlyPrecipIn,Conditions,Clouds,dailyrainin,SolarRadiationWatts/m^2,SoftwareType,DateUTC
2013-07-25 00:00:00,66.9,54.3,29.92,NE,48,6.0,15.0,64,-0.01,,,0.00,0002,Weather View 32 v70,2013-07-25 04:00:00,
2013-07-25 00:01:00,66.8,54.2,29.92,NNE,21,3.0,15.0,64,-0.01,,,0.00,0002,Weather View 32 v70,2013-07-25 04:01:00,
2013-07-25 00:06:00,66.5,53.9,29.92,NE,38,4.0,15.0,64,-0.01,,,0.00,0002,Weather View 32 v70,2013-07-25 04:06:00,
2013-07-25 00:11:00,66.3,53.7,29.92,North,354,4.0,13.0,64,-0.01,,,0.00,0002,Weather View 32 v70,2013-07-25 04:11:00,
2013-07-25 00:16:00,66.1,53.5,29.92,NW,320,5.0,14.0,64,-0.01,,,0.00,0002,Weather View 32 v70,2013-07-25 04:16:00,
2013-07-25 00:21:00,66.0,53.4,29.92,NNW,345,3.0,14.0,64,-0.01,,,0.00,0002,Weather View 32 v70,2013-07-25 04:21:00,
2013-07-25 00:27:00,65.8,53.7,29.92,NW,304,3.0,14.0,65,-0.01,,,0.00,0002,Weather View 32 v70,2013-07-25 04:27:00,
2013-07-25 00:32:00,65.4,52.9,29.92,NE,37,5.0,14.0,64,-0.01,,,0.00,0002,Weather View 32 v70,2013-07-25 04:32:00,
2013-07-25 00:37:00,65.1,52.2,29.93,NNE,32,7.0,14.0,63,-0.01,,,0.00,0002,Weather View 32 v70,2013-07-25 04:37:00,
2013-07-25 00:42:00,64.7,51.3,29.93,NNE,26,5.0,14.0,62,-0.01,,,0.00,0002,Weather View 32 v70,2013-07-25 04:42:00,
2013-07-25 00:47:00,64.4,51.1,29.93,WNW,296,3.0,14.0,62,-0.01,,,0.00,0002,Weather View 32 v70,2013-07-25 04:47:00,
2013-07-25 00:52:00,64.2,50.9,29.93,NNW,348,5.0,14.0,62,-0.01,,,0.00,0002,Weather View 32 v70,2013-07-25 04:52:00,
2013-07-25 00:57:00,64.1,51.2,29.93,NNW,330,4.0,14.0,63,-0.01,,,0.00,0002,Weather View 32 v70,2013-07-25 04:57:00,
2013-07-25 01:02:00,63.9,51.0,29.93,North,1,3.0,14.0,63,0.00,,,0.00,0002,Weather View 32 v70,2013-07-25 05:02:00,
2013-07-25 01:07:00,63.8,50.9,29.93,NNW,339,3.0,14.0,63,0.00,,,0.00,0002,Weather View 32 v70,2013-07-25 05:07:00,
2013-07-25 01:12:00,63.4,50.1,29.93,North,353,4.0,14.0,62,0.00,,,0.00,0002,Weather View 32 v70,2013-07-25 05:12:00,
2013-07-25 01:17:00,63.1,50.3,29.93,NNE,26,4.0,13.0,63,0.00,,,0.00,0002,Weather View 32 v70,2013-07-25 05:17:00,
2013-07-25 01:22:00,63.1,50.3,29.93,NNE,18,7.0,13.0,63,0.00,,,0.00,0002,Weather View 32 v70,2013-07-25 05:22:00,
2013-07-25 01:27:00,63.0,50.2,29.93,North,2,6.0,13.0,63,0.00,,,0.00,0002,Weather View 32 v70,2013-07-25 05:27:00,
2013-07-25 01:32:00,62.9,50.1,29.94,North,9,3.0,13.0,63,0.00,,,0.00,0002,Weather View 32 v70,2013-07-25 05:32:00,
2013-07-25 01:37:00,62.9,49.6,29.93,ENE,66,5.0,16.0,62,0.00,,,0.00,0002,Weather View 32 v70,2013-07-25 05:37:00,
2013-07-25 01:42:00,62.6,49.8,29.94,WSW,253,1.0,16.0,63,0.00,,,0.00,0002,Weather View 32 v70,2013-07-25 05:42:00,
2013-07-25 01:47:00,62.5,49.7,29.94,NNE,31,7.0,16.0,63,0.00,,,0.00,0002,Weather View 32 v70,2013-07-25 05:47:00,
2013-07-25 01:52:00,62.3,49.5,29.94,ENE,72,6.0,16.0,63,0.00,,,0.00,0002,Weather View 32 v70,2013-07-25 05:52:00,
2013-07-25 01:57:00,62.4,49.2,29.94,NW,312,2.0,16.0,62,0.00,,,0.00,0002,Weather View 32 v70,2013-07-25 05:57:00,
2013-07-25 02:02:00,62.3,49.1,29.94,North,6,5.0,16.0,62,0.00,,,0.00,0002,Weather View 32 v70,2013-07-25 06:02:00,
2013-07-25 02:07:00,62.5,49.7,29.93,ENE,77,2.0,16.0,63,0.00,,,0.00,0002,Weather View 32 v70,2013-07-25 06:07:00,
2013-07-25 02:12:00,62.3,49.1,29.93,NE,43,5.0,16.0,62,0.00,,,0.00,0002,Weather View 32 v70,2013-07-25 06:12:00,
2013-07-25 02:17:00,62.2,49.0,29.93,NE,46,3.0,16.0,62,0.00,,,0.00,0002,Weather View 32 v70,2013-07-25 06:17:00,
2013-07-25 02:22:00,62.0,48.8,29.93,NNE,12,5.0,16.0,62,0.00,,,0.00,0002,Weather View 32 v70,2013-07-25 06:22:00,
2013-07-25 02:27:00,61.7,48.5,29.93,NW,306,4.0,16.0,62,0.00,,,0.00,0002,Weather View 32 v70,2013-07-25 06:27:00,
2013-07-25 02:32:00,61.6,48.4,29.93,NE,49,3.0,16.0,62,0.00,,,0.00,0002,Weather View 32 v70,2013-07-25 06:32:00,
2013-07-25 02:37:00,61.6,48.8,29.94,NE,47,3.0,11.0,63,0.00,,,0.00,0002,Weather View 32 v70,2013-07-25 06:37:00,
2013-07-25 02:42:00,61.5,48.8,29.94,NW,325,5.0,11.0,63,0.00,,,0.00,0002,Weather View 32 v70,2013-07-25 06:42:00,
2013-07-25 02:47:00,61.6,48.8,29.94,NW,314,1.0,11.0,63,0.00,,,0.00,0002,Weather View 32 v70,2013-07-25 06:47:00,
2013-07-25 02:52:00,61.6,48.8,29.94,NNE,15,3.0,11.0,63,0.00,,,0.00,0002,Weather View 32 v70,2013-07-25 06:52:00,
2013-07-25 02:57:00,61.4,48.7,29.94,NNW,337,5.0,11.0,63,0.00,,,0.00,0002,Weather View 32 v70,2013-07-25 06:57:00,
2013-07-25 03:02:00,61.4,48.7,29.94,North,9,4.0,11.0,63,0.00,,,0.00,0002,Weather View 32 v70,2013-07-25 07:02:00,
2013-07-25 03:07:00,61.4,49.1,29.94,NNW,331,2.0,11.0,64,0.00,,,0.00,0002,Weather View 32 v70,2013-07-25 07:07:00,
2013-07-25 03:12:00,61.4,49.1,29.95,ENE,57,2.0,11.0,64,0.00,,,0.00,0002,Weather View 32 v70,2013-07-25 07:12:00,
2013-07-25 03:17:00,61.3,48.6,29.95,NNE,16,2.0,10.0,63,0.00,,,0.00,0002,Weather View 32 v70,2013-07-25 07:17:00,
2013-07-25 03:22:00,61.4,49.1,29.95,North,8,1.0,10.0,64,0.00,,,0.00,0002,Weather View 32 v70,2013-07-25 07:22:00,
2013-07-25 03:27:00,61.4,49.1,29.94,NNW,328,1.0,10.0,64,0.00,,,0.00,0002,Weather View 32 v70,2013-07-25 07:27:00,
2013-07-25 03:32:00,61.3,49.0,29.95,North,350,1.0,10.0,64,0.00,,,0.00,0002,Weather View 32 v70,2013-07-25 07:32:00,
2013-07-25 03:37:00,61.2,48.9,29.95,NE,52,1.0,10.0,64,0.00,,,0.00,0002,Weather View 32 v70,2013-07-25 07:37:00,
2013-07-25 03:42:00,61.3,49.0,29.95,North,356,1.0,9.0,64,0.00,,,0.00,0002,Weather View 32 v70,2013-07-25 07:42:00,
2013-07-25 03:47:00,61.2,49.3,29.95,NNE,21,1.0,9.0,65,0.00,,,0.00,0002,Weather View 32 v70,2013-07-25 07:47:00,
2013-07-25 03:52:00,61.1,49.2,29.96,NNE,29,2.0,9.0,65,0.00,,,0.00,0002,Weather View 32 v70,2013-07-25 07:52:00,
2013-07-25 03:57:00,61.2,49.3,29.96,North,357,1.0,9.0,65,0.00,,,0.00,0002,Weather View 32 v70,2013-07-25 07:57:00,
2013-07-25 04:02:00,61.0,49.1,29.95,NNW,337,2.0,9.0,65,0.00,,,0.00,0002,Weather View 32 v70,2013-07-25 08:02:00,
2013-07-25 04:07:00,61.0,49.1,29.95,North,357,2.0,9.0,65,0.00,,,0.00,0002,Weather View 32 v70,2013-07-25 08:07:00,
2013-07-25 04:12:00,60.9,49.4,29.95,WNW,286,2.0,9.0,66,0.00,,,0.00,0002,Weather View 32 v70,2013-07-25 08:12:00,
2013-07-25 04:17:00,60.8,49.3,29.96,NNW,342,1.0,7.0,66,0.00,,,0.00,0002,Weather View 32 v70,2013-07-25 08:17:00,
2013-07-25 04:22:00,60.8,49.3,29.96,NNE,25,2.0,7.0,66,0.00,,,0.00,0002,Weather View 32 v70,2013-07-25 08:22:00,
2013-07-25 04:27:00,60.8,49.3,29.96,NE,37,2.0,7.0,66,0.00,,,0.00,0002,Weather View 32 v70,2013-07-25 08:27:00,
2013-07-25 04:32:00,60.8,49.7,29.96,NW,326,2.0,7.0,67,0.00,,,0.00,0002,Weather View 32 v70,2013-07-25 08:32:00,
2013-07-25 04:37:00,60.7,49.7,29.96,NNE,14,2.0,7.0,67,0.00,,,0.00,0002,Weather View 32 v70,2013-07-25 08:37:00,
2013-07-25 04:42:00,60.7,49.7,29.97,North,350,2.0,7.0,67,0.00,,,0.00,0002,Weather View 32 v70,2013-07-25 08:42:00,
2013-07-25 04:47:00,60.8,49.7,29.97,NNW,342,2.0,7.0,67,0.00,,,0.00,0002,Weather View 32 v70,2013-07-25 08:47:00,
2013-07-25 04:53:00,60.7,49.7,29.97,NW,319,1.0,8.0,67,0.00,,,0.00,0002,Weather View 32 v70,2013-07-25 08:53:00,
2013-07-25 04:58:00,60.7,49.7,29.96,North,353,1.0,8.0,67,0.00,,,0.00,0002,Weather View 32 v70,2013-07-25 08:58:00,
2013-07-25 05:03:00,60.7,49.7,29.97,North,2,1.0,8.0,67,0.00,,,0.00,0002,Weather View 32 v70,2013-07-25 09:03:00,
2013-07-25 05:08:00,60.7,50.0,29.97,NE,42,2.0,8.0,68,0.00,,,0.00,0002,Weather View 32 v70,2013-07-25 09:08:00,
2013-07-25 05:13:00,60.7,50.0,29.97,North,352,1.0,8.0,68,0.00,,,0.00,0002,Weather View 32 v70,2013-07-25 09:13:00,
2013-07-25 05:18:00,60.8,50.1,29.97,North,1,2.0,8.0,68,0.00,,,0.00,0002,Weather View 32 v70,2013-07-25 09:18:00,
2013-07-25 05:23:00,60.7,50.0,29.98,NNE,28,0.0,8.0,68,0.00,,,0.00,0002,Weather View 32 v70,2013-07-25 09:23:00,
2013-07-25 05:28:00,60.8,50.5,29.98,North,353,1.0,8.0,69,0.00,,,0.00,0002,Weather View 32 v70,2013-07-25 09:28:00,
2013-07-25 05:33:00,60.8,50.5,29.98,NNW,346,1.0,8.0,69,0.00,,,0.00,0002,Weather View 32 v70,2013-07-25 09:33:00,
2013-07-25 05:38:00,60.7,50.4,29.98,NNE,27,2.0,8.0,69,0.00,,,0.00,0002,Weather View 32 v70,2013-07-25 09:38:00,
2013-07-25 05:43:00,60.6,50.3,29.98,East,83,2.0,8.0,69,0.00,,,0.00,0003,Weather View 32 v70,2013-07-25 09:43:00,
2013-07-25 05:48:00,60.7,50.4,29.98,NNE,32,2.0,8.0,69,0.00,,,0.00,0004,Weather View 32 v70,2013-07-25 09:48:00,
2013-07-25 05:53:00,60.6,50.3,29.98,North,3,2.0,8.0,69,0.00,,,0.00,0007,Weather View 32 v70,2013-07-25 09:53:00,
2013-07-25 05:58:00,60.7,50.8,29.98,NNE,27,1.0,8.0,70,0.00,,,0.00,0011,Weather View 32 v70,2013-07-25 09:58:00,
2013-07-25 06:03:00,60.7,50.8,29.98,NNW,340,1.0,6.0,70,0.01,,,0.00,0011,Weather View 32 v70,2013-07-25 10:03:00,
2013-07-25 06:08:00,60.7,50.8,29.98,North,10,2.0,7.0,70,0.00,,,0.00,0011,Weather View 32 v70,2013-07-25 10:08:00,
2013-07-25 06:13:00,60.6,50.7,29.99,NNW,332,2.0,7.0,70,0.00,,,0.00,0012,Weather View 32 v70,2013-07-25 10:13:00,
2013-07-25 06:18:00,60.7,51.2,29.99,NE,36,1.0,7.0,71,0.00,,,0.00,0009,Weather View 32 v70,2013-07-25 10:18:00,
2013-07-25 06:23:00,60.7,51.2,29.99,NW,318,1.0,7.0,71,0.00,,,0.00,0007,Weather View 32 v70,2013-07-25 10:23:00,
2013-07-25 06:28:00,60.7,51.2,29.99,North,6,1.0,7.0,71,0.00,,,0.00,0009,Weather View 32 v70,2013-07-25 10:28:00,
2013-07-25 06:33:00,60.8,51.3,29.99,NNW,341,1.0,7.0,71,0.00,,,0.00,0008,Weather View 32 v70,2013-07-25 10:33:00,
2013-07-25 06:38:00,60.8,51.3,29.99,NNW,336,2.0,7.0,71,0.00,,,0.00,0012,Weather View 32 v70,2013-07-25 10:38:00,
2013-07-25 06:43:00,60.8,51.7,30.00,NNE,28,3.0,7.0,72,0.00,,,0.00,0012,Weather View 32 v70,2013-07-25 10:43:00,
2013-07-25 06:48:00,60.9,51.8,30.00,NE,43,1.0,7.0,72,0.00,,,0.00,0020,Weather View 32 v70,2013-07-25 10:48:00,
2013-07-25 06:53:00,60.8,51.7,29.99,ENE,57,3.0,7.0,72,0.00,,,0.00,0012,Weather View 32 v70,2013-07-25 10:53:00,
2013-07-25 06:58:00,61.0,51.9,29.99,NNW,348,0.0,7.0,72,0.00,,,0.00,0032,Weather View 32 v70,2013-07-25 10:58:00,
2013-07-25 07:03:00,60.9,51.4,29.99,NNW,344,2.0,8.0,71,0.00,,,0.00,0030,Weather View 32 v70,2013-07-25 11:03:00,
2013-07-25 07:08:00,60.8,51.3,30.00,North,354,4.0,8.0,71,0.00,,,0.00,0028,Weather View 32 v70,2013-07-25 11:08:00,
2013-07-25 07:13:00,61.0,51.9,30.00,NE,39,2.0,8.0,72,0.00,,,0.00,0032,Weather View 32 v70,2013-07-25 11:13:00,
2013-07-25 07:18:00,61.0,51.9,30.00,NNW,344,3.0,8.0,72,0.00,,,0.00,0036,Weather View 32 v70,2013-07-25 11:18:00,
2013-07-25 07:23:00,61.0,51.9,30.00,NNW,346,2.0,8.0,72,0.00,,,0.00,0037,Weather View 32 v70,2013-07-25 11:23:00,
2013-07-25 07:28:00,60.9,51.8,30.01,NNW,328,3.0,8.0,72,0.00,,,0.00,0033,Weather View 32 v70,2013-07-25 11:28:00,
2013-07-25 07:33:00,61.1,52.0,30.01,East,89,4.0,9.0,72,0.00,,,0.00,0040,Weather View 32 v70,2013-07-25 11:33:00,
2013-07-25 07:38:00,61.0,51.9,30.01,East,94,4.0,9.0,72,0.00,,,0.00,0028,Weather View 32 v70,2013-07-25 11:38:00,
2013-07-25 07:43:00,61.3,52.2,30.01,NNW,343,5.0,9.0,72,0.00,,,0.00,0023,Weather View 32 v70,2013-07-25 11:43:00,
2013-07-25 07:48:00,61.2,52.1,30.01,NNE,29,1.0,9.0,72,0.00,,,0.00,0020,Weather View 32 v70,2013-07-25 11:48:00,
2013-07-25 07:53:00,61.3,52.2,30.02,NNE,17,1.0,9.0,72,0.00,,,0.00,0021,Weather View 32 v70,2013-07-25 11:53:00,
2013-07-25 07:58:00,61.1,52.0,30.02,NNE,21,6.0,9.0,72,0.00,,,0.00,0026,Weather View 32 v70,2013-07-25 11:58:00,
2013-07-25 08:03:00,61.3,52.5,30.02,NE,42,3.0,9.0,73,0.00,,,0.00,0039,Weather View 32 v70,2013-07-25 12:03:00,
2013-07-25 08:08:00,61.2,52.5,30.02,NW,310,3.0,9.0,73,0.00,,,0.00,0056,Weather View 32 v70,2013-07-25 12:08:00,
2013-07-25 08:13:00,61.4,52.6,30.03,ENE,65,4.0,10.0,73,0.00,,,0.00,0069,Weather View 32 v70,2013-07-25 12:13:00,
2013-07-25 08:18:00,61.6,52.8,30.03,NE,42,2.0,10.0,73,0.00,,,0.00,0059,Weather View 32 v70,2013-07-25 12:18:00,
2013-07-25 08:23:00,61.6,52.8,30.04,NNW,338,4.0,10.0,73,0.00,,,0.00,0057,Weather View 32 v70,2013-07-25 12:23:00,
2013-07-25 08:28:00,61.7,52.9,30.03,NW,324,1.0,10.0,73,0.00,,,0.00,0093,Weather View 32 v70,2013-07-25 12:28:00,
2013-07-25 08:33:00,62.0,53.2,30.03,NNE,30,4.0,10.0,73,0.00,,,0.00,0124,Weather View 32 v70,2013-07-25 12:33:00,
2013-07-25 08:38:00,61.8,52.7,30.03,ENE,67,2.0,10.0,72,0.00,,,0.00,0120,Weather View 32 v70,2013-07-25 12:38:00,
2013-07-25 08:43:00,61.9,52.8,30.03,ESE,113,3.0,10.0,72,0.00,,,0.00,0108,Weather View 32 v70,2013-07-25 12:43:00,
2013-07-25 08:48:00,62.2,53.0,30.03,NE,46,2.0,10.0,72,0.00,,,0.00,0077,Weather View 32 v70,2013-07-25 12:48:00,
2013-07-25 08:53:00,62.4,53.2,30.03,East,85,3.0,10.0,72,0.00,,,0.00,0064,Weather View 32 v70,2013-07-25 12:53:00,
2013-07-25 08:58:00,62.2,53.0,30.03,ENE,57,1.0,10.0,72,0.00,,,0.00,0071,Weather View 32 v70,2013-07-25 12:58:00,
2013-07-25 09:03:00,62.0,52.8,30.03,NNE,25,4.0,10.0,72,0.00,,,0.00,0085,Weather View 32 v70,2013-07-25 13:03:00,
2013-07-25 09:08:00,62.0,53.2,30.04,ENE,66,2.0,10.0,73,0.00,,,0.00,0061,Weather View 32 v70,2013-07-25 13:08:00,
2013-07-25 09:13:00,62.1,53.3,30.04,ENE,76,6.0,10.0,73,0.00,,,0.00,0064,Weather View 32 v70,2013-07-25 13:13:00,
2013-07-25 09:18:00,62.2,53.4,30.04,NE,48,3.0,10.0,73,0.00,,,0.00,0064,Weather View 32 v70,2013-07-25 13:18:00,
2013-07-25 09:23:00,62.3,53.5,30.04,ENE,58,4.0,10.0,73,0.00,,,0.00,0089,Weather View 32 v70,2013-07-25 13:23:00,
2013-07-25 09:28:00,62.2,53.8,30.04,North,351,7.0,10.0,74,0.00,,,0.00,0076,Weather View 32 v70,2013-07-25 13:28:00,
2013-07-25 09:33:00,62.3,53.9,30.04,NE,34,3.0,10.0,74,0.00,,,0.00,0079,Weather View 32 v70,2013-07-25 13:33:00,
2013-07-25 09:38:00,62.5,54.1,30.04,NNW,344,1.0,10.0,74,0.00,,,0.00,0081,Weather View 32 v70,2013-07-25 13:38:00,
2013-07-25 09:43:00,62.6,54.2,30.04,East,85,2.0,9.0,74,0.00,,,0.00,0056,Weather View 32 v70,2013-07-25 13:43:00,
2013-07-25 09:48:00,62.5,54.1,30.05,NW,314,8.0,9.0,74,0.00,,,0.00,0068,Weather View 32 v70,2013-07-25 13:48:00,
2013-07-25 09:53:00,62.5,54.1,30.05,NE,37,2.0,10.0,74,0.00,,,0.00,0052,Weather View 32 v70,2013-07-25 13:53:00,
2013-07-25 09:58:00,62.4,53.6,30.05,ENE,57,4.0,10.0,73,0.00,,,0.00,0037,Weather View 32 v70,2013-07-25 13:58:00,
2013-07-25 10:03:00,62.4,54.0,30.05,East,80,2.0,10.0,74,0.00,,,0.00,0042,Weather View 32 v70,2013-07-25 14:03:00,
2013-07-25 10:08:00,62.3,53.9,30.05,NNW,333,1.0,10.0,74,0.00,,,0.00,0053,Weather View 32 v70,2013-07-25 14:08:00,
2013-07-25 10:13:00,62.5,54.1,30.05,ENE,75,4.0,10.0,74,0.00,,,0.00,0059,Weather View 32 v70,2013-07-25 14:13:00,
2013-07-25 10:18:00,62.3,54.3,30.05,NW,313,2.0,10.0,75,0.00,,,0.00,0069,Weather View 32 v70,2013-07-25 14:18:00,
2013-07-25 10:23:00,62.5,54.4,30.05,North,355,4.0,10.0,75,0.00,,,0.00,0077,Weather View 32 v70,2013-07-25 14:23:00,
2013-07-25 10:30:00,62.4,54.3,30.05,North,1,5.0,12.0,75,0.00,,,0.00,0086,Weather View 32 v70,2013-07-25 14:30:00,
2013-07-25 10:35:00,62.5,54.1,30.05,NNW,331,2.0,12.0,74,0.00,,,0.00,0100,Weather View 32 v70,2013-07-25 14:35:00,
2013-07-25 10:40:00,62.7,54.6,30.05,NNE,26,2.0,12.0,75,0.00,,,0.00,0111,Weather View 32 v70,2013-07-25 14:40:00,
2013-07-25 10:45:00,62.8,54.7,30.05,ENE,70,2.0,12.0,75,0.00,,,0.00,0103,Weather View 32 v70,2013-07-25 14:45:00,
2013-07-25 10:50:00,63.0,54.9,30.05,ENE,64,2.0,12.0,75,0.00,,,0.00,0096,Weather View 32 v70,2013-07-25 14:50:00,
2013-07-25 10:55:00,62.9,54.5,30.06,NE,42,2.0,12.0,74,0.00,,,0.00,0080,Weather View 32 v70,2013-07-25 14:55:00,
2013-07-25 11:00:00,63.2,55.1,30.05,NNW,337,2.0,12.0,75,0.00,,,0.00,0092,Weather View 32 v70,2013-07-25 15:00:00,
2013-07-25 11:05:00,63.0,54.6,30.05,NE,35,4.0,12.0,74,0.00,,,0.00,0086,Weather View 32 v70,2013-07-25 15:05:00,
2013-07-25 11:10:00,62.9,54.5,30.05,NNE,28,7.0,12.0,74,0.00,,,0.00,0083,Weather View 32 v70,2013-07-25 15:10:00,
2013-07-25 11:15:00,62.8,54.4,30.06,NNE,31,2.0,12.0,74,0.00,,,0.00,0058,Weather View 32 v70,2013-07-25 15:15:00,
2013-07-25 11:20:00,62.8,54.7,30.06,North,8,3.0,12.0,75,0.00,,,0.00,0054,Weather View 32 v70,2013-07-25 15:20:00,
2013-07-25 11:25:00,62.8,54.7,30.06,NNE,33,2.0,12.0,75,0.00,,,0.00,0063,Weather View 32 v70,2013-07-25 15:25:00,
2013-07-25 11:30:00,62.8,54.7,30.06,NE,56,1.0,11.0,75,0.00,,,0.00,0093,Weather View 32 v70,2013-07-25 15:30:00,
2013-07-25 11:35:00,63.0,55.3,30.06,NNE,18,3.0,11.0,76,0.00,,,0.00,0108,Weather View 32 v70,2013-07-25 15:35:00,
2013-07-25 11:40:00,62.9,54.8,30.06,North,11,2.0,11.0,75,0.00,,,0.00,0089,Weather View 32 v70,2013-07-25 15:40:00,
2013-07-25 11:45:00,62.8,54.7,30.06,NE,43,2.0,11.0,75,0.00,,,0.00,0096,Weather View 32 v70,2013-07-25 15:45:00,
2013-07-25 11:50:00,63.1,55.4,30.06,NNW,330,3.0,11.0,76,0.00,,,0.00,0093,Weather View 32 v70,2013-07-25 15:50:00,
2013-07-25 11:55:00,63.2,55.1,30.06,NE,48,2.0,11.0,75,0.00,,,0.00,0092,Weather View 32 v70,2013-07-25 15:55:00,
2013-07-25 12:00:00,62.8,54.7,30.06,NNE,13,5.0,11.0,75,0.00,,,0.00,0087,Weather View 32 v70,2013-07-25 16:00:00,
2013-07-25 12:05:00,62.6,54.5,30.07,NNW,345,3.0,11.0,75,0.00,,,0.00,0072,Weather View 32 v70,2013-07-25 16:05:00,
2013-07-25 12:10:00,62.6,54.9,30.07,SE,141,2.0,11.0,76,0.00,,,0.00,0062,Weather View 32 v70,2013-07-25 16:10:00,
2013-07-25 12:15:00,62.7,55.0,30.07,NNE,15,5.0,10.0,76,0.00,,,0.00,0068,Weather View 32 v70,2013-07-25 16:15:00,
2013-07-25 12:20:00,62.8,55.1,30.07,NE,51,3.0,10.0,76,0.00,,,0.00,0067,Weather View 32 v70,2013-07-25 16:20:00,
2013-07-25 12:25:00,62.8,55.1,30.07,NE,47,4.0,10.0,76,0.00,,,0.00,0064,Weather View 32 v70,2013-07-25 16:25:00,
2013-07-25 12:30:00,62.7,55.0,30.06,NNW,347,2.0,10.0,76,0.00,,,0.00,0060,Weather View 32 v70,2013-07-25 16:30:00,
2013-07-25 12:35:00,62.8,55.5,30.06,NE,54,3.0,10.0,77,0.00,,,0.00,0059,Weather View 32 v70,2013-07-25 16:35:00,
2013-07-25 12:40:00,62.6,54.9,30.06,NNW,344,1.0,10.0,76,0.00,,,0.00,0066,Weather View 32 v70,2013-07-25 16:40:00,
2013-07-25 12:45:00,62.7,55.4,30.06,East,96,3.0,10.0,77,0.00,,,0.00,0090,Weather View 32 v70,2013-07-25 16:45:00,
2013-07-25 12:50:00,62.7,55.4,30.06,North,354,1.0,10.0,77,0.00,,,0.00,0120,Weather View 32 v70,2013-07-25 16:50:00,
2013-07-25 12:55:00,62.5,55.2,30.06,NNE,33,4.0,11.0,77,0.00,,,0.00,0112,Weather View 32 v70,2013-07-25 16:55:00,
2013-07-25 13:00:00,62.4,55.1,30.06,ESE,108,4.0,11.0,77,0.00,,,0.00,0124,Weather View 32 v70,2013-07-25 17:00:00,
2013-07-25 13:05:00,62.8,55.8,30.06,NE,43,4.0,11.0,78,0.00,,,0.00,0171,Weather View 32 v70,2013-07-25 17:05:00,
2013-07-25 13:10:00,63.0,55.7,30.06,NNE,19,3.0,11.0,77,0.00,,,0.00,0196,Weather View 32 v70,2013-07-25 17:10:00,
2013-07-25 13:15:00,62.8,55.5,30.06,NNE,16,8.0,11.0,77,0.00,,,0.00,0164,Weather View 32 v70,2013-07-25 17:15:00,
2013-07-25 13:20:00,62.7,55.4,30.06,NW,325,3.0,12.0,77,0.00,,,0.00,0151,Weather View 32 v70,2013-07-25 17:20:00,
2013-07-25 13:25:00,62.9,55.6,30.06,NNW,341,3.0,12.0,77,0.00,,,0.00,0173,Weather View 32 v70,2013-07-25 17:25:00,
2013-07-25 13:30:00,63.1,55.8,30.06,East,82,6.0,12.0,77,0.00,,,0.00,0170,Weather View 32 v70,2013-07-25 17:30:00,
2013-07-25 13:35:00,63.4,56.0,30.06,NE,35,1.0,12.0,77,0.00,,,0.00,0155,Weather View 32 v70,2013-07-25 17:35:00,
2013-07-25 13:36:00,63.4,56.0,30.06,NNE,25,5.0,12.0,77,0.00,,,0.00,0154,Weather View 32 v70,2013-07-25 17:36:00,
2013-07-25 13:41:00,63.2,55.5,30.06,NNW,340,4.0,12.0,76,0.00,,,0.00,0157,Weather View 32 v70,2013-07-25 17:41:00,
2013-07-25 13:46:00,62.9,55.2,30.06,ENE,66,7.0,12.0,76,0.00,,,0.00,0135,Weather View 32 v70,2013-07-25 17:46:00,
2013-07-25 13:51:00,63.2,55.8,30.05,East,84,5.0,12.0,77,0.00,,,0.00,0205,Weather View 32 v70,2013-07-25 17:51:00,
2013-07-25 13:56:00,63.6,56.2,30.05,NE,56,4.0,12.0,77,0.00,,,0.00,0233,Weather View 32 v70,2013-07-25 17:56:00,
2013-07-25 14:01:00,63.5,55.8,30.05,ENE,77,2.0,12.0,76,0.00,,,0.00,0217,Weather View 32 v70,2013-07-25 18:01:00,
2013-07-25 14:06:00,63.5,55.4,30.05,NE,47,4.0,12.0,75,0.01,,,0.00,0192,Weather View 32 v70,2013-07-25 18:06:00,
2013-07-25 14:11:00,63.7,56.0,30.05,North,356,4.0,12.0,76,0.00,,,0.00,0163,Weather View 32 v70,2013-07-25 18:11:00,
2013-07-25 14:16:00,63.6,55.9,30.05,ENE,62,6.0,12.0,76,0.00,,,0.00,0129,Weather View 32 v70,2013-07-25 18:16:00,
2013-07-25 14:21:00,63.5,55.8,30.05,NE,41,4.0,11.0,76,0.00,,,0.00,0141,Weather View 32 v70,2013-07-25 18:21:00,
2013-07-25 14:26:00,63.2,55.5,30.05,North,353,4.0,11.0,76,0.00,,,0.00,0124,Weather View 32 v70,2013-07-25 18:26:00,
2013-07-25 14:32:00,63.5,56.1,30.05,NNE,18,2.0,11.0,77,0.00,,,0.00,0106,Weather View 32 v70,2013-07-25 18:32:00,
2013-07-25 14:37:00,63.0,55.7,30.05,NNW,343,4.0,11.0,77,0.00,,,0.00,0090,Weather View 32 v70,2013-07-25 18:37:00,
2013-07-25 14:42:00,62.9,55.9,30.05,North,2,4.0,10.0,78,0.00,,,0.00,0095,Weather View 32 v70,2013-07-25 18:42:00,
2013-07-25 14:47:00,62.8,55.8,30.05,NE,39,2.0,10.0,78,0.00,,,0.00,0125,Weather View 32 v70,2013-07-25 18:47:00,
2013-07-25 14:52:00,63.2,56.6,30.05,NNE,14,1.0,10.0,79,0.00,,,0.00,0169,Weather View 32 v70,2013-07-25 18:52:00,
2013-07-25 14:57:00,63.5,57.2,30.05,East,91,4.0,10.0,80,0.00,,,0.00,0155,Weather View 32 v70,2013-07-25 18:57:00,
2013-07-25 15:02:00,63.2,56.2,30.05,NNE,22,2.0,10.0,78,0.00,,,0.00,0149,Weather View 32 v70,2013-07-25 19:02:00,
2013-07-25 15:07:00,63.7,57.0,30.05,East,87,4.0,10.0,79,0.00,,,0.00,0162,Weather View 32 v70,2013-07-25 19:07:00,
2013-07-25 15:12:00,63.8,57.1,30.05,NE,43,2.0,10.0,79,0.00,,,0.00,0160,Weather View 32 v70,2013-07-25 19:12:00,
2013-07-25 15:17:00,64.2,57.9,30.05,East,91,4.0,10.0,80,0.00,,,0.00,0165,Weather View 32 v70,2013-07-25 19:17:00,
2013-07-25 15:22:00,63.8,56.8,30.04,NNE,32,6.0,10.0,78,0.00,,,0.00,0166,Weather View 32 v70,2013-07-25 19:22:00,
2013-07-25 15:27:00,63.9,57.2,30.04,NNE,26,2.0,10.0,79,0.00,,,0.00,0157,Weather View 32 v70,2013-07-25 19:27:00,
2013-07-25 15:32:00,63.8,57.1,30.04,NE,43,1.0,10.0,79,0.00,,,0.00,0138,Weather View 32 v70,2013-07-25 19:32:00,
2013-07-25 15:37:00,64.0,57.3,30.04,ENE,63,8.0,10.0,79,0.00,,,0.00,0117,Weather View 32 v70,2013-07-25 19:37:00,
2013-07-25 15:43:00,63.9,57.2,30.04,NNW,345,2.0,10.0,79,0.00,,,0.00,0100,Weather View 32 v70,2013-07-25 19:43:00,
2013-07-25 15:48:00,63.7,56.7,30.05,ENE,61,2.0,10.0,78,0.00,,,0.00,0065,Weather View 32 v70,2013-07-25 19:48:00,
2013-07-25 15:53:00,63.7,57.0,30.05,North,353,2.0,10.0,79,0.00,,,0.00,0036,Weather View 32 v70,2013-07-25 19:53:00,
2013-07-25 15:58:00,63.4,56.8,30.05,NE,37,2.0,10.0,79,0.00,,,0.00,0045,Weather View 32 v70,2013-07-25 19:58:00,
2013-07-25 16:03:00,63.2,56.6,30.05,SE,131,1.0,10.0,79,0.00,,,0.00,0036,Weather View 32 v70,2013-07-25 20:03:00,
2013-07-25 16:08:00,63.3,57.0,30.05,ENE,69,2.0,10.0,80,0.00,,,0.00,0036,Weather View 32 v70,2013-07-25 20:08:00,
2013-07-25 16:13:00,63.1,56.8,30.05,East,90,2.0,10.0,80,0.00,,,0.00,0031,Weather View 32 v70,2013-07-25 20:13:00,
2013-07-25 16:18:00,62.8,56.9,30.05,NW,315,4.0,10.0,81,0.00,,,0.00,0029,Weather View 32 v70,2013-07-25 20:18:00,
2013-07-25 16:23:00,62.7,57.1,30.04,NW,316,2.0,9.0,82,0.00,,,0.00,0027,Weather View 32 v70,2013-07-25 20:23:00,
2013-07-25 16:28:00,62.7,57.4,30.05,East,83,2.0,9.0,83,0.00,,,0.00,0025,Weather View 32 v70,2013-07-25 20:28:00,
2013-07-25 16:33:00,62.5,57.3,30.05,NNE,29,2.0,9.0,83,0.00,,,0.00,0019,Weather View 32 v70,2013-07-25 20:33:00,
2013-07-25 16:38:00,62.4,57.5,30.05,NNE,30,2.0,9.0,84,0.00,,,0.01,0021,Weather View 32 v70,2013-07-25 20:38:00,
2013-07-25 16:43:00,62.1,57.5,30.05,NE,44,3.0,9.0,85,0.02,,,0.03,0022,Weather View 32 v70,2013-07-25 20:43:00,
2013-07-25 16:48:00,61.9,57.3,30.05,NE,46,2.0,8.0,85,0.04,,,0.05,0023,Weather View 32 v70,2013-07-25 20:48:00,
2013-07-25 16:53:00,61.7,57.5,30.05,ENE,67,2.0,8.0,86,0.07,,,0.07,0025,Weather View 32 v70,2013-07-25 20:53:00,
2013-07-25 16:58:00,61.4,57.5,30.05,NE,35,2.0,8.0,87,0.08,,,0.08,0026,Weather View 32 v70,2013-07-25 20:58:00,
2013-07-25 17:03:00,61.2,57.3,30.05,NE,50,2.0,6.0,87,0.08,,,0.08,0020,Weather View 32 v70,2013-07-25 21:03:00,
2013-07-25 17:08:00,61.1,57.5,30.05,SW,233,1.0,6.0,88,0.09,,,0.09,0018,Weather View 32 v70,2013-07-25 21:08:00,
2013-07-25 17:13:00,61.1,57.5,30.05,NNW,344,1.0,6.0,88,0.11,,,0.11,0017,Weather View 32 v70,2013-07-25 21:13:00,
2013-07-25 17:18:00,61.1,57.5,30.05,NW,324,2.0,6.0,88,0.13,,,0.13,0020,Weather View 32 v70,2013-07-25 21:18:00,
2013-07-25 17:23:00,60.9,57.6,30.05,NE,51,2.0,6.0,89,0.15,,,0.15,0021,Weather View 32 v70,2013-07-25 21:23:00,
2013-07-25 17:28:00,60.8,57.5,30.05,East,101,4.0,6.0,89,0.17,,,0.17,0019,Weather View 32 v70,2013-07-25 21:28:00,
2013-07-25 17:33:00,60.5,57.2,30.05,NE,42,1.0,6.0,89,0.18,,,0.18,0027,Weather View 32 v70,2013-07-25 21:33:00,
2013-07-25 17:38:00,60.5,57.5,30.05,North,358,2.0,6.0,90,0.19,,,0.20,0026,Weather View 32 v70,2013-07-25 21:38:00,
2013-07-25 17:43:00,60.5,57.5,30.05,North,8,2.0,6.0,90,0.19,,,0.22,0024,Weather View 32 v70,2013-07-25 21:43:00,
2013-07-25 17:48:00,60.4,57.4,30.05,NE,45,1.0,6.0,90,0.18,,,0.23,0022,Weather View 32 v70,2013-07-25 21:48:00,
2013-07-25 17:53:00,60.3,57.7,30.05,North,8,2.0,6.0,91,0.17,,,0.24,0024,Weather View 32 v70,2013-07-25 21:53:00,
2013-07-25 17:58:00,60.4,57.8,30.05,NE,54,1.0,6.0,91,0.17,,,0.25,0023,Weather View 32 v70,2013-07-25 21:58:00,
2013-07-25 18:03:00,60.4,57.8,30.05,North,350,2.0,6.0,91,0.17,,,0.25,0017,Weather View 32 v70,2013-07-25 22:03:00,
2013-07-25 18:08:00,60.3,57.7,30.05,North,352,3.0,6.0,91,0.17,,,0.26,0021,Weather View 32 v70,2013-07-25 22:08:00,
2013-07-25 18:13:00,60.1,57.5,30.06,NNE,32,1.0,6.0,91,0.16,,,0.27,0019,Weather View 32 v70,2013-07-25 22:13:00,
2013-07-25 18:18:00,60.0,57.7,30.06,NW,312,2.0,6.0,92,0.14,,,0.28,0017,Weather View 32 v70,2013-07-25 22:18:00,
2013-07-25 18:23:00,60.1,57.8,30.06,NNE,24,2.0,6.0,92,0.13,,,0.28,0018,Weather View 32 v70,2013-07-25 22:23:00,
2013-07-25 18:28:00,60.1,57.8,30.06,NNW,330,2.0,6.0,92,0.12,,,0.29,0013,Weather View 32 v70,2013-07-25 22:28:00,
2013-07-25 18:33:00,60.0,57.7,30.05,North,2,2.0,6.0,92,0.12,,,0.30,0015,Weather View 32 v70,2013-07-25 22:33:00,
2013-07-25 18:38:00,59.9,57.6,30.05,North,357,2.0,6.0,92,0.11,,,0.31,0014,Weather View 32 v70,2013-07-25 22:38:00,
2013-07-25 18:43:00,59.8,57.5,30.06,NW,326,2.0,6.0,92,0.10,,,0.32,0013,Weather View 32 v70,2013-07-25 22:43:00,
2013-07-25 18:48:00,59.7,57.4,30.06,North,352,2.0,6.0,92,0.09,,,0.32,0011,Weather View 32 v70,2013-07-25 22:48:00,
2013-07-25 18:53:00,59.9,57.6,30.05,NNW,348,2.0,6.0,92,0.08,,,0.32,0011,Weather View 32 v70,2013-07-25 22:53:00,
2013-07-25 18:58:00,59.9,57.9,30.05,North,350,2.0,6.0,93,0.08,,,0.33,0012,Weather View 32 v70,2013-07-25 22:58:00,
2013-07-25 19:03:00,59.7,57.7,30.05,North,7,2.0,7.0,93,0.08,,,0.33,0009,Weather View 32 v70,2013-07-25 23:03:00,
2013-07-25 19:08:00,59.7,57.7,30.05,NW,324,1.0,7.0,93,0.07,,,0.33,0007,Weather View 32 v70,2013-07-25 23:08:00,
2013-07-25 19:13:00,59.9,57.9,30.05,NNE,12,1.0,7.0,93,0.06,,,0.34,0007,Weather View 32 v70,2013-07-25 23:13:00,
2013-07-25 19:18:00,59.9,57.9,30.05,North,7,1.0,7.0,93,0.07,,,0.34,0005,Weather View 32 v70,2013-07-25 23:18:00,
2013-07-25 19:23:00,59.9,57.9,30.05,North,354,3.0,7.0,93,0.06,,,0.34,0005,Weather View 32 v70,2013-07-25 23:23:00,
2013-07-25 19:28:00,59.8,57.8,30.05,NNW,328,4.0,7.0,93,0.05,,,0.34,0005,Weather View 32 v70,2013-07-25 23:28:00,
2013-07-25 19:33:00,59.8,57.8,30.05,NNE,13,2.0,7.0,93,0.04,,,0.34,0005,Weather View 32 v70,2013-07-25 23:33:00,
2013-07-25 19:38:00,59.6,57.6,30.05,NNW,328,1.0,7.0,93,0.03,,,0.34,0004,Weather View 32 v70,2013-07-25 23:38:00,
2013-07-25 19:43:00,59.6,57.9,30.05,NW,311,0.0,7.0,94,0.03,,,0.35,0004,Weather View 32 v70,2013-07-25 23:43:00,
2013-07-25 19:48:00,59.7,58.0,30.05,North,359,1.0,7.0,94,0.03,,,0.35,0004,Weather View 32 v70,2013-07-25 23:48:00,
2013-07-25 19:53:00,59.8,58.1,30.05,NNE,31,2.0,7.0,94,0.03,,,0.35,0003,Weather View 32 v70,2013-07-25 23:53:00,
2013-07-25 19:58:00,59.9,58.2,30.05,NNW,337,2.0,7.0,94,0.02,,,0.35,0003,Weather View 32 v70,2013-07-25 23:58:00,
2013-07-25 20:03:00,59.9,58.2,30.05,North,358,2.0,7.0,94,0.02,,,0.35,0003,Weather View 32 v70,2013-07-26 00:03:00,
2013-07-25 20:08:00,59.8,58.1,30.05,North,9,2.0,7.0,94,0.02,,,0.35,0002,Weather View 32 v70,2013-07-26 00:08:00,
2013-07-25 20:13:00,59.8,58.1,30.04,NNW,330,5.0,7.0,94,0.02,,,0.35,0002,Weather View 32 v70,2013-07-26 00:13:00,
2013-07-25 20:18:00,59.7,58.0,30.04,NW,316,2.0,7.0,94,0.01,,,0.35,0002,Weather View 32 v70,2013-07-26 00:18:00,
2013-07-25 20:23:00,59.8,58.1,30.04,NNW,335,2.0,6.0,94,0.01,,,0.35,0002,Weather View 32 v70,2013-07-26 00:23:00,
2013-07-25 20:28:00,59.8,58.1,30.04,NNW,347,3.0,6.0,94,0.01,,,0.35,0002,Weather View 32 v70,2013-07-26 00:28:00,
2013-07-25 20:33:00,59.7,58.0,30.04,NNW,329,4.0,6.0,94,0.01,,,0.35,0002,Weather View 32 v70,2013-07-26 00:33:00,
2013-07-25 20:38:00,59.7,58.0,30.04,ENE,66,4.0,6.0,94,0.01,,,0.35,0002,Weather View 32 v70,2013-07-26 00:38:00,
2013-07-25 20:43:00,59.8,58.1,30.04,NNW,343,1.0,6.0,94,0.00,,,0.35,0002,Weather View 32 v70,2013-07-26 00:43:00,
2013-07-25 20:48:00,59.8,58.1,30.04,WNW,297,3.0,6.0,94,0.00,,,0.35,0002,Weather View 32 v70,2013-07-26 00:48:00,
2013-07-25 20:53:00,59.8,58.1,30.04,North,4,2.0,6.0,94,0.00,,,0.35,0002,Weather View 32 v70,2013-07-26 00:53:00,
2013-07-25 20:54:00,59.9,58.2,30.04,NNW,338,2.0,6.0,94,0.00,,,0.35,0002,Weather View 32 v70,2013-07-26 00:54:00,
2013-07-25 20:59:00,59.8,58.1,30.04,ENE,65,3.0,6.0,94,0.00,,,0.35,0002,Weather View 32 v70,2013-07-26 00:59:00,
2013-07-25 21:04:00,59.7,58.3,30.04,NNW,347,4.0,7.0,95,0.00,,,0.35,0002,Weather View 32 v70,2013-07-26 01:04:00,
2013-07-25 21:09:00,59.6,58.2,30.04,NNW,342,3.0,7.0,95,0.00,,,0.35,0002,Weather View 32 v70,2013-07-26 01:09:00,
2013-07-25 21:14:00,59.8,58.4,30.04,North,356,3.0,7.0,95,0.00,,,0.35,0002,Weather View 32 v70,2013-07-26 01:14:00,
2013-07-25 21:19:00,59.7,58.3,30.04,North,355,3.0,7.0,95,0.00,,,0.35,0002,Weather View 32 v70,2013-07-26 01:19:00,
2013-07-25 21:24:00,59.7,58.3,30.04,NNE,12,3.0,7.0,95,0.00,,,0.35,0002,Weather View 32 v70,2013-07-26 01:24:00,
2013-07-25 21:29:00,59.7,58.3,30.04,North,358,3.0,10.0,95,0.00,,,0.35,0002,Weather View 32 v70,2013-07-26 01:29:00,
2013-07-25 21:34:00,59.8,58.4,30.04,NE,34,2.0,10.0,95,0.00,,,0.35,0002,Weather View 32 v70,2013-07-26 01:34:00,
2013-07-25 21:39:00,59.9,58.5,30.04,NE,42,3.0,10.0,95,0.00,,,0.35,0002,Weather View 32 v70,2013-07-26 01:39:00,
2013-07-25 21:44:00,59.9,58.5,30.04,NE,48,2.0,10.0,95,0.00,,,0.35,0002,Weather View 32 v70,2013-07-26 01:44:00,
2013-07-25 21:49:00,60.0,58.6,30.04,NW,318,2.0,10.0,95,0.00,,,0.35,0002,Weather View 32 v70,2013-07-26 01:49:00,
2013-07-25 21:54:00,60.0,58.6,30.04,NNE,22,1.0,10.0,95,0.00,,,0.35,0002,Weather View 32 v70,2013-07-26 01:54:00,
2013-07-25 21:59:00,60.0,58.6,30.04,North,358,2.0,10.0,95,0.00,,,0.35,0002,Weather View 32 v70,2013-07-26 01:59:00,
2013-07-25 22:04:00,60.0,58.6,30.04,NNE,26,1.0,10.0,95,0.00,,,0.35,0002,Weather View 32 v70,2013-07-26 02:04:00,
2013-07-25 22:09:00,60.0,58.6,30.04,NNE,23,3.0,10.0,95,0.00,,,0.35,0002,Weather View 32 v70,2013-07-26 02:09:00,
2013-07-25 22:14:00,60.1,58.7,30.04,NNE,12,2.0,10.0,95,0.00,,,0.35,0002,Weather View 32 v70,2013-07-26 02:14:00,
2013-07-25 22:19:00,60.0,58.6,30.04,North,351,2.0,10.0,95,0.00,,,0.35,0002,Weather View 32 v70,2013-07-26 02:19:00,
2013-07-25 22:24:00,60.1,58.7,30.04,NE,44,3.0,10.0,95,0.00,,,0.35,0002,Weather View 32 v70,2013-07-26 02:24:00,
2013-07-25 22:29:00,60.0,58.6,30.03,NW,319,2.0,10.0,95,0.00,,,0.35,0002,Weather View 32 v70,2013-07-26 02:29:00,
2013-07-25 22:34:00,60.1,58.7,30.03,NNW,345,2.0,7.0,95,0.00,,,0.35,0002,Weather View 32 v70,2013-07-26 02:34:00,
2013-07-25 22:39:00,60.1,58.7,30.03,North,6,5.0,7.0,95,0.00,,,0.35,0002,Weather View 32 v70,2013-07-26 02:39:00,
2013-07-25 22:44:00,60.2,58.8,30.04,NNW,338,4.0,7.0,95,0.00,,,0.35,0002,Weather View 32 v70,2013-07-26 02:44:00,
2013-07-25 22:49:00,60.1,58.7,30.03,North,1,4.0,9.0,95,0.00,,,0.35,0002,Weather View 32 v70,2013-07-26 02:49:00,
2013-07-25 22:54:00,60.2,58.8,30.03,North,358,3.0,9.0,95,0.00,,,0.35,0002,Weather View 32 v70,2013-07-26 02:54:00,
2013-07-25 22:59:00,60.2,58.8,30.03,WNW,292,1.0,9.0,95,0.00,,,0.35,0002,Weather View 32 v70,2013-07-26 02:59:00,
2013-07-25 23:04:00,60.2,58.8,30.03,ENE,66,1.0,9.0,95,0.00,,,0.35,0002,Weather View 32 v70,2013-07-26 03:04:00,
2013-07-25 23:09:00,60.1,58.7,30.03,NNW,348,5.0,9.0,95,0.00,,,0.35,0002,Weather View 32 v70,2013-07-26 03:09:00,
2013-07-25 23:14:00,60.2,58.8,30.03,WSW,242,1.0,9.0,95,0.00,,,0.35,0002,Weather View 32 v70,2013-07-26 03:14:00,
2013-07-25 23:19:00,60.2,58.8,30.03,NNW,346,2.0,9.0,95,0.00,,,0.35,0002,Weather View 32 v70,2013-07-26 03:19:00,
2013-07-25 23:24:00,60.2,58.8,30.02,NNE,16,3.0,9.0,95,0.00,,,0.35,0002,Weather View 32 v70,2013-07-26 03:24:00,
2013-07-25 23:29:00,60.2,58.8,30.03,North,350,2.0,9.0,95,0.00,,,0.35,0002,Weather View 32 v70,2013-07-26 03:29:00,
2013-07-25 23:34:00,60.1,58.7,30.02,NNE,12,3.0,9.0,95,0.00,,,0.35,0002,Weather View 32 v70,2013-07-26 03:34:00,
2013-07-25 23:39:00,60.2,58.8,30.02,NNW,345,2.0,9.0,95,0.00,,,0.35,0002,Weather View 32 v70,2013-07-26 03:39:00,
2013-07-25 23:44:00,60.2,58.8,30.02,ENE,58,2.0,9.0,95,0.00,,,0.35,0002,Weather View 32 v70,2013-07-26 03:44:00,
2013-07-25 23:49:00,60.2,58.8,30.02,NE,34,2.0,8.0,95,0.00,,,0.35,0002,Weather View 32 v70,2013-07-26 03:49:00,
2013-07-25 23:54:00,60.2,58.8,30.02,NNW,345,1.0,8.0,95,0.00,,,0.35,0002,Weather View 32 v70,2013-07-26 03:54:00,
2013-07-25 23:59:00,60.1,58.7,30.02,NNW,332,6.0,8.0,95,-0.35,,,0.00,0002,Weather View 32 v70,2013-07-26 03:59:00,